Location: Agendoh
(31.0664°N, 8.9343°W)
Time: 21:57:16
(UTC+00:00)

Lacrosse 5 - Pass Details

Date: 01 July 2022
Orbit: 714 x 724 km, 57.0° (Epoch: 09 March)

Event Time Altitude Azimuth Distance (km) Brightness Sun altitude
Rises 21:19:44 0° 337° (NNW) 3,138 6.4 -17.7°
Reaches altitude 10° 21:22:54 10° 357° (N) 2,214 5.0 -18.2°
Maximum altitude 21:26:18 18° 39° (NE) 1,747 3.9 -18.8°
Enters shadow 21:28:44 13° 72° (ENE) 1,997 3.9 -19.1°
